Lahr, Germany

1:32 PM CET on November 15, 2019 (GMT +0100)
Lahr

Weather History for EDTL - August, 2019

Change the Weather History Date:

Sunday, August 25, 2019

  Actual Average (LFST) Record (LFST)
Temperature  
Mean Temperature 72 °F -  
Max Temperature 86 °F 74 °F 91 °F (2001)
Min Temperature 59 °F 56 °F 47 °F (2014)
Cooling Degree Days 8    
Growing Degree Days 22 (Base 50)    
Moisture  
Dew Point 59 °F    
Average Humidity 73    
Maximum Humidity 100    
Minimum Humidity 22    
Precipitation  
Precipitation 0.00 in - - ()
Sea Level Pressure  
Sea Level Pressure 30.07 in    
Wind  
Wind Speed 2 mph ()    
Max Wind Speed 7 mph    
Max Gust Speed -    
Visibility 9.4 miles    
Events Fog    
Averages and records for this station are not official NWS values.
T = Trace of Precipitation, MM = Missing Value Source: Averaged Metar Reports

Daily Weather History Graph

Daily Weather History Graph

Search for Another Location

Airport or City:

Astronomy

Aug. 25, 2019 Rise Set
Actual Time 6:35 AM CEST 8:24 PM CEST
Civil Twilight 6:02 AM CEST 8:58 PM CEST
Nautical Twilight 5:21 AM CEST 9:38 PM CEST
Astronomical Twilight 4:36 AM CEST 10:23 PM CEST
Moon 12:45 AM CEST (8/25) 4:44 PM CEST (8/25)
Length of Visible Light 14h 55m
Length of Day
13h 49m
Waning Crescent, 32% of the Moon is Illuminated
Aug 25
Waning Crescent
Aug 30
New
Sep 6
First Quarter
Sep 14
Full
Sep 22
Last Quarter

Hourly Weather History & Observations

Time (CEST) Temp. Dew Point Humidity Pressure Visibility Wind Dir Wind Speed Gust Speed Precip Events Conditions
1:00 AM 63 °F 60 °F 88% 30.08 in 4 mi NE 2.2 mph - -   Mist
3:00 AM 60 °F 59 °F 95% 30.08 in 4 mi NW 2.2 mph - -   Mist
3:50 AM 62.6 °F 60.8 °F 94% 30.06 in 6.2 mi Calm Calm - N/A   Unknown
4:00 AM 60 °F 59 °F 96% 30.07 in 0 mi NE 2.2 mph - - Fog Fog
4:20 AM 60.8 °F 59.0 °F 94% 30.06 in - West 1.2 mph - N/A   Clear
4:50 AM 64.4 °F 60.8 °F 88% 30.06 in - Variable 1.2 mph - N/A   Clear
5:50 AM 59.0 °F 57.2 °F 94% 30.09 in - SSW 3.5 mph - N/A   Clear
6:00 AM 59 °F 58 °F 93% 30.09 in 4 mi SW 4.5 mph - -   Mist
6:20 AM 60.8 °F 59.0 °F 94% 30.09 in - South 3.5 mph - N/A   Clear
6:50 AM 59.0 °F 59.0 °F 100% 30.09 in - SSE 2.3 mph - N/A   Clear
7:20 AM 62.6 °F 60.8 °F 94% 30.09 in - SE 3.5 mph - N/A   Clear
7:50 AM 64.4 °F 60.8 °F 88% 30.09 in - Variable 1.2 mph - N/A   Clear
10:00 AM 72 °F 62 °F 64% 30.10 in 10 mi SSW 4.5 mph - -  
12:00 PM 78 °F 62 °F 49% 30.08 in 11 mi SSW 4.5 mph - -  
1:00 PM 81 °F 64 °F 46% 30.07 in 13 mi NW 2.2 mph - -  
3:00 PM 85 °F 57 °F 29% 30.05 in 15 mi NW 4.5 mph - -  
4:00 PM 86 °F 53 °F 22% 30.04 in 19 mi NW 2.2 mph - -  
6:00 PM 85 °F 55 °F 26% 30.03 in 17 mi NW 6.7 mph - -  
7:00 PM 83 °F 56 °F 29% 30.04 in 22 mi NE 4.5 mph - -